IRIDIUM 33 DEB, 35929

Orbit data source: Space-Track

IRIDIUM 33 DEB, 35929 is space debris in LEO originally from a launch on Sun, 14 Sep 1997 UTC launched from the Tyuratam Missile And Space Complex (TTMTR). The debris from Iridium 33, an American commercial communications satellite, has been tracked extensively since its accidental collision with the defunct Russian satellite Cosmos 2251 in 2009. This event, occurring at high speed in low Earth orbit (LEO), generated thousands of pieces of space debris, significantly increasing the risk of further collisions. The Iridium 33 debris cloud has impacted space traffic management and orbital debris mitigation strategies, making it a subject of ongoing study in space situational awareness.

Loading next visibility...
Identifier
35929, 1997-051UN
Orbit
LEO
Country
Flag of USUS
Related business
Manufacturer
Unknown
Mission
Spacecraft
Bus & Motor
Unknown
Mass
Unknown
Launch date (UTC)
1997-09-14 (29 years ago)
Launch vehicle
Unknown
Launch site
Tyuratam Missile And Space Complex (TTMTR)
Object type
Payload
Rocket body
Debris
Shape & HBR
Unknown shape, 0.050 m
Radar Cross Section
Small (<0.1 m²)

Expand to show TLE details & history
Last TLE update: 3 days ago

TLE from 3 days ago
0 IRIDIUM 33 DEB
1 35929U 97051UN  26264.47959288  .00040722  00000-0  15648-2 0  9993
2 35929  86.3429 176.3737 0013693  59.9326 300.3276 15.26174282920585
Epoch: 2026-09-21T11:30Z
TLE epoch observation values (Epoch: 2026-09-21T11:30:36.824Z)
Latitude
-0.00008°
Longitude
3.36143°
Altitude
485.703 km
Speed
7.625 km/s
True Right ascension
11h 45m 29s
True Declination
0° 00' 00"
Sunlit
Object was in daylight at epoch
Visualization orbit readout
Latitude
Unknown
Longitude
Unknown
Altitude
Unknown
Speed
Unknown
Apparent Right ascension
Unknown
Apparent Declination
Unknown
Sunlit
N/A
Visualization observer readout
Local Sidereal Time
15:03:03
Azimuth
Unknown
Elevation
Unknown
Doppler factor
Unknown
Orbital elements
Apogee altitude
493.495 km
Perigee altitude
474.702 km
Semi-major axis
6,862.235 km
Eccentricity
0.00137
Inclination
86.3429°
RAAN
176.3737°
Arg. of periapsis
59.9326°
True anomaly
300.19205°
Mean anomaly
300.3276°
Eccentric anomaly
300.25983°
Mean motion
3.81808 °/min
Orbital period
94.29 mins
BSTAR
0.0015648

Documentation

Showing up to 5 results
|